STARLINK-31761 (59615 NORAD) Tracking and Keplerian Element Data

This shows tracking and keplerian element data for the satellite.

Feedback or suggestion? Click here.




ElementValue
Catalog59615
NameSTARLINK-31761
Epoch Orbit745
Epoch Day160.15808627
Epoch Year2024
RAAN87.8084
Inclination43.0022
Eccentricity0.0001296
Argument of Perigee266.6021
Mean Anonmoly93.4687
Mean Motion15.40705941
Decay Rate3.153E-05
L11 59615U 24080Q 24160.15808627 .00003153 00000+0 82707-4 0 9999
L22 59615 43.0022 87.8084 0001296 266.6021 93.4687 15.40705941 7454



Live tracking and technical data element details for STARLINK-31761 (NORAD 59615). STARLINK-31761 can be tracked NOW for your location showing map with azimuth and elevation plus other details from your city location.







IsCatalogInMostPopularTable: catalog: 59615, numindb: 10
Update: records affected: 1



GetName: 59615 STARLINK-31761

Hit Count: updated at: Fri, 14 Jun 2024 19:43:56 GMT